TimeCST,TemperatureF,Dew PointF,Humidity,Sea Level PressureIn,VisibilityMPH,Wind Direction,Wind SpeedMPH,Gust SpeedMPH,PrecipitationIn,Events,Conditions,WindDirDegrees,DateUTC
12:55 AM,43.3,32.4,65,30.04,10.0,NW,8.1,-,N/A,,Clear,310,2012-11-07 06:55:00
1:55 AM,42.4,32.7,68,30.05,10.0,WNW,9.2,-,N/A,,Clear,300,2012-11-07 07:55:00
2:55 AM,41.2,32.5,71,30.05,10.0,NW,6.9,-,N/A,,Clear,310,2012-11-07 08:55:00
3:55 AM,39.4,32.9,78,30.05,10.0,WNW,9.2,-,N/A,,Clear,300,2012-11-07 09:55:00
4:55 AM,41.0,32.9,73,30.06,10.0,WNW,8.1,-,N/A,,Clear,290,2012-11-07 10:55:00
5:55 AM,40.6,32.7,73,30.08,10.0,NW,10.4,-,N/A,,Clear,310,2012-11-07 11:55:00
6:55 AM,38.7,33.1,80,30.11,10.0,NW,10.4,-,N/A,,Clear,310,2012-11-07 12:55:00
7:55 AM,40.6,34.0,77,30.14,10.0,NW,9.2,-,N/A,,Clear,310,2012-11-07 13:55:00
8:55 AM,44.4,34.7,69,30.15,10.0,NNW,12.7,-,N/A,,Clear,330,2012-11-07 14:55:00
9:55 AM,46.8,36.1,67,30.17,10.0,North,12.7,-,N/A,,Clear,350,2012-11-07 15:55:00
10:55 AM,48.6,36.3,63,30.18,10.0,North,11.5,-,N/A,,Scattered Clouds,10,2012-11-07 16:55:00
11:55 AM,49.1,35.4,59,30.17,10.0,NNE,10.4,-,N/A,,Scattered Clouds,20,2012-11-07 17:55:00
12:55 PM,49.1,35.2,59,30.15,10.0,North,9.2,-,N/A,,Scattered Clouds,10,2012-11-07 18:55:00
1:55 PM,50.9,35.4,55,30.14,10.0,NNE,10.4,-,N/A,,Scattered Clouds,20,2012-11-07 19:55:00
2:55 PM,50.9,34.9,54,30.13,9.0,Variable,4.6,-,N/A,,Clear,0,2012-11-07 20:55:00
3:55 PM,50.5,34.7,55,30.13,10.0,NE,4.6,-,N/A,,Clear,50,2012-11-07 21:55:00
4:55 PM,49.5,34.5,56,30.13,10.0,Calm,Calm,-,N/A,,Clear,0,2012-11-07 22:55:00
5:55 PM,43.3,34.0,70,30.14,10.0,ESE,3.5,-,N/A,,Clear,110,2012-11-07 23:55:00
6:24 PM,42.8,33.8,70,30.14,10.0,ESE,3.5,-,N/A,,Clear,110,2012-11-08 00:24:00
6:33 PM,41.0,33.8,76,30.14,10.0,ESE,3.5,-,N/A,,Clear,120,2012-11-08 00:33:00
6:55 PM,42.4,33.3,70,30.14,10.0,ESE,3.5,-,0.00,,Clear,120,2012-11-08 00:55:00
7:38 PM,41.0,33.8,76,30.14,10.0,ESE,3.5,-,N/A,,Clear,120,2012-11-08 01:38:00
7:43 PM,39.2,33.8,81,30.14,10.0,ESE,3.5,-,N/A,,Clear,120,2012-11-08 01:43:00
7:55 PM,39.6,33.3,78,30.14,10.0,SE,4.6,-,0.00,,Clear,130,2012-11-08 01:55:00
8:55 PM,38.5,33.3,81,30.16,10.0,Calm,Calm,-,N/A,,Clear,0,2012-11-08 02:55:00
9:06 PM,37.4,33.8,87,30.16,10.0,SE,3.5,-,N/A,,Clear,130,2012-11-08 03:06:00
9:27 PM,37.4,33.8,87,30.16,10.0,SE,4.6,-,N/A,,Clear,130,2012-11-08 03:27:00
9:35 PM,37.4,33.8,87,30.15,10.0,SE,3.5,-,N/A,,Clear,130,2012-11-08 03:35:00
9:44 PM,37.4,33.8,87,30.15,10.0,SE,3.5,-,N/A,,Clear,130,2012-11-08 03:44:00
9:55 PM,37.8,33.3,84,30.16,10.0,SE,3.5,-,0.00,,Clear,140,2012-11-08 03:55:00
10:55 PM,36.7,33.3,87,30.16,10.0,ESE,4.6,-,N/A,,Clear,120,2012-11-08 04:55:00
11:55 PM,36.9,33.8,89,30.16,10.0,SSE,4.6,-,N/A,,Clear,150,2012-11-08 05:55:00